TimePST,TemperatureF,Dew PointF,Humidity,Sea Level PressureIn,VisibilityMPH,Wind Direction,Wind SpeedMPH,Gust SpeedMPH,PrecipitationIn,Events,Conditions,WindDirDegrees,DateUTC
12:53 AM,48.9,43.0,80,29.91,10.0,NW,12.7,-,0.00,Rain,Light Rain,320,2012-12-05 08:53:00
1:53 AM,48.0,42.1,80,29.94,10.0,NW,6.9,-,N/A,,Mostly Cloudy,320,2012-12-05 09:53:00
2:53 AM,48.0,39.9,74,29.98,10.0,NW,15.0,-,N/A,,Overcast,310,2012-12-05 10:53:00
3:53 AM,46.0,37.9,73,30.00,9.0,WNW,19.6,-,0.01,Rain,Light Rain,300,2012-12-05 11:53:00
4:53 AM,46.0,37.0,71,30.02,10.0,WNW,15.0,21.9,0.00,,Partly Cloudy,290,2012-12-05 12:53:00
6:53 AM,45.0,36.0,71,30.10,10.0,Calm,Calm,-,0.00,,Overcast,0,2012-12-05 14:53:00
7:53 AM,45.0,36.0,71,30.13,10.0,Variable,3.5,-,0.00,,Overcast,0,2012-12-05 15:53:00
8:53 AM,46.0,37.0,71,30.15,10.0,WNW,13.8,-,N/A,,Scattered Clouds,300,2012-12-05 16:53:00
9:53 AM,46.9,37.0,68,30.18,10.0,NW,15.0,-,N/A,,Clear,310,2012-12-05 17:53:00
10:53 AM,48.0,36.0,63,30.19,10.0,NW,15.0,-,N/A,,Overcast,310,2012-12-05 18:53:00
11:53 AM,48.0,34.0,58,30.19,10.0,NW,12.7,-,N/A,,Clear,310,2012-12-05 19:53:00
12:53 PM,51.1,34.0,52,30.20,10.0,NW,13.8,19.6,N/A,,Scattered Clouds,320,2012-12-05 20:53:00
1:53 PM,48.9,35.1,59,30.19,10.0,NW,9.2,-,N/A,,Scattered Clouds,310,2012-12-05 21:53:00
2:53 PM,46.9,35.1,63,30.20,10.0,WNW,6.9,-,N/A,,Clear,300,2012-12-05 22:53:00
3:53 PM,46.0,34.0,63,30.21,10.0,WNW,6.9,-,N/A,,Clear,290,2012-12-05 23:53:00
4:53 PM,44.1,33.1,65,30.22,10.0,Calm,Calm,-,N/A,,Clear,0,2012-12-06 00:53:00
5:53 PM,39.9,33.1,77,30.23,10.0,Calm,Calm,-,N/A,,Clear,0,2012-12-06 01:53:00
6:53 PM,39.9,34.0,79,30.23,10.0,WSW,6.9,-,N/A,,Clear,240,2012-12-06 02:53:00
7:53 PM,37.9,32.0,79,30.24,10.0,East,4.6,-,N/A,,Clear,100,2012-12-06 03:53:00
8:53 PM,37.0,32.0,82,30.25,10.0,ESE,3.5,-,N/A,,Mostly Cloudy,110,2012-12-06 04:53:00
9:53 PM,35.1,32.0,89,30.25,10.0,SSE,3.5,-,N/A,,Mostly Cloudy,150,2012-12-06 05:53:00
10:53 PM,36.0,32.0,86,30.24,10.0,Calm,Calm,-,N/A,,Mostly Cloudy,0,2012-12-06 06:53:00
11:53 PM,35.1,30.9,85,30.24,10.0,SSE,5.8,-,N/A,,Mostly Cloudy,160,2012-12-06 07:53:00